User: anonymous   Login
Location: Ariel
(45.9570°N, 122.5700°W)
Time: 13:07:51
(UTC-07:00)
Language:

SPROUT - Orbit

View from above orbital plane
View from above orbital plane
View from above satellite
View from above satellite

Ground track
Ground track

The orbit data is extracted from the following two-line orbital elements,

1 39770U 14029E   19287.35944162  .00000659  00000-0  78829-4 0  9991
2 39770  97.8890  29.9250 0010094  63.2986 296.9246 14.87456429292320
Epoch (UTC): 14 October 2019 08:37:35
Eccentricity: 0.0010094
inclination: 97.8890°
perigee height: 599 km
apogee height: 613 km
right ascension of ascending node: 29.9250°
argument of perigee: 63.2986°
revolutions per day: 14.87456429
mean anomaly at epoch: 296.9246°
orbit number at epoch: 29232

The dashed part of the orbit path shows where the satellite is in the earth's shadow,  

DLR